EW9525 Weather Reports


Display with metric or nautical units.
time (UTC)temp
F
wind
direction
speed
MPH
gust
MPH
rain 1hr
in
rain 24hr
in
rain mn
in
humidity
%
barometer
mb
20260901223058 93 162 8.0 14.0 0.00 0.00 0.00 33 1006.3
20260901221557 94 136 8.0 12.0 0.00 0.00 0.00 34 1006.3
20260901220055 95 157 8.0 12.0 0.00 0.00 0.00 31 1006.5
20260901214552 95 166 5.0 9.0 0.00 0.00 0.00 34 1006.8
20260901213109 93 181 6.0 9.0 0.00 0.00 0.00 35 1006.9
20260901211547 92 210 7.0 13.0 0.00 0.00 0.00 34 1007.3
20260901210045 93 215 10.0 18.0 0.00 0.00 0.00 32 1007.4
20260901204547 91 129 5.0 0.0 0.00 0.00 0.00 41 1007.8
20260901203041 90 158 5.0 8.0 0.00 0.00 0.00 45 1008.1
20260901201540 90 146 5.0 8.0 0.00 0.00 0.00 43 1008.2
20260901200040 92 135 6.0 11.0 0.00 0.00 0.00 39 1008.3
20260901194536 92 161 7.0 11.0 0.00 0.00 0.00 38 1008.3
20260901193033 91 101 8.0 12.0 0.00 0.00 0.00 42 1008.6
20260901191532 91 100 5.0 9.0 0.00 0.00 0.00 42 1008.9
20260901190033 91 86 5.0 11.0 0.00 0.00 0.00 43 1009.1
20260901184540 91 134 6.0 13.0 0.00 0.00 0.00 42 1009.1
20260901183030 90 147 6.0 13.0 0.00 0.00 0.00 43 1009.3
20260901181532 90 139 6.0 10.0 0.00 0.00 0.00 43 1009.9
20260901180024 89 167 4.0 9.0 0.00 0.00 0.00 45 1009.9
20260901174521 88 93 5.0 10.0 0.00 0.00 0.00 44 1010.1
20260901173018 87 77 7.0 11.0 0.00 0.00 0.00 48 1010.0
20260901171516 87 74 6.0 10.0 0.00 0.00 0.00 49 1010.2
20260901170019 86 108 1.0 9.0 0.00 0.00 0.00 48 1010.5
20260901164515 85 172 2.0 7.0 0.00 0.00 0.00 50 1010.8
20260901163013 84 87 3.0 7.0 0.00 0.00 0.00 52 1010.8
20260901161507 82 134 4.0 6.0 0.00 0.00 0.00 56 1010.9
20260901160005 81 43 1.0 5.0 0.00 0.00 0.00 59 1010.8
20260901154503 80 11 2.0 6.0 0.00 0.00 0.00 60 1010.8
20260901153102 80 85 5.0 10.0 0.00 0.00 0.00 62 1010.5
20260901151559 79 84 4.0 7.0 0.00 0.00 0.00 62 1010.6
20260901150107 79 109 1.0 4.0 0.00 0.00 0.00 60 1011.0
20260901144556 79 75 0.0 2.0 0.00 0.00 0.00 60 1011.1
20260901143054 76 85 0.0 2.0 0.00 0.00 0.00 66 1011.0
20260901141551 74 55 3.0 5.0 0.00 0.00 0.00 71 1010.9
20260901140053 72 60 4.0 7.0 0.00 0.00 0.00 75 1011.0
20260901134615 71 46 7.0 9.0 0.00 0.00 0.00 78 1011.0
20260901133056 69 222 0.0 4.0 0.00 0.00 0.00 81 1010.6
20260901131549 67 218 2.0 4.0 0.00 0.00 0.00 84 1010.5
20260901130049 66 199 1.0 2.0 0.00 0.00 0.00 85 1010.2
20260901124554 66 212 0.0 0.0 0.00 0.00 0.00 83 1010.0
20260901123045 67 213 0.0 0.0 0.00 0.00 0.00 80 1009.9
20260901121546 66 138 0.0 2.0 0.00 0.00 0.00 80 1009.7
20260901120044 66 133 0.0 1.0 0.00 0.00 0.00 80 1009.6
20260901114555 68 86 1.0 3.0 0.00 0.00 0.00 76 1009.8
20260901113041 68 292 1.0 4.0 0.00 0.00 0.00 77 1009.9
20260901111541 69 259 1.0 3.0 0.00 0.00 0.00 74 1009.5
20260901110041 69 205 0.0 0.0 0.00 0.00 0.00 73 1009.4
20260901104537 70 145 0.0 0.0 0.00 0.00 0.00 74 1009.4
20260901103035 70 60 0.0 0.0 0.00 0.00 0.00 73 1009.3
20260901101534 70 60 0.0 0.0 0.00 0.00 0.00 73 1009.5
20260901100032 71 226 0.0 0.0 0.00 0.00 0.00 72 1009.6
20260901094531 73 258 0.0 4.0 0.00 0.00 0.00 68 1009.7
20260901093028 74 281 2.0 5.0 0.00 0.00 0.00 67 1009.7
20260901091528 74 252 4.0 9.0 0.00 0.00 0.00 68 1010.2
20260901090026 74 258 2.0 7.0 0.00 0.00 0.00 70 1010.3
20260901084525 72 221 2.0 3.0 0.00 0.00 0.00 80 1010.5
20260901083023 72 243 1.0 5.0 0.00 0.00 0.00 81 1010.6
20260901081529 73 233 0.0 0.0 0.00 0.00 0.00 78 1009.9
20260901080024 73 217 0.0 2.0 0.00 0.00 0.00 78 1010.1
20260901074518 75 285 1.0 2.0 0.00 0.00 0.00 73 1010.1
20260901073019 73 253 1.0 3.0 0.00 0.00 0.00 78 1010.3
20260901071515 75 244 1.0 3.0 0.00 0.00 0.00 72 1010.2
20260901070015 73 285 1.0 5.0 0.00 0.00 0.00 76 1010.1
20260901064514 73 291 0.0 2.0 0.00 0.00 0.00 76 1009.9
20260901063025 74 257 2.0 3.0 0.00 0.00 0.00 76 1009.9
20260901061511 73 221 4.0 5.0 0.00 0.00 0.00 78 1010.1
20260901060009 74 28 4.0 6.0 0.00 0.00 0.00 76 1009.0
20260901054513 75 268 0.0 3.0 0.00 0.00 0.00 73 1009.9
20260901053002 76 8 0.0 0.0 0.00 0.00 0.00 73 1009.8
20260901051501 76 232 0.0 0.0 0.00 0.00 0.00 71 1009.8
20260901050058 76 43 0.0 3.0 0.00 0.00 0.00 72 1009.6
20260901044559 76 20 0.0 0.0 0.00 0.00 0.00 71 1009.6
20260901043059 77 91 0.0 2.0 0.00 0.00 0.00 70 1009.8
20260901041556 77 30 3.0 5.0 0.00 0.00 0.00 70 1010.0
20260901040111 78 268 1.0 5.0 0.00 0.00 0.00 68 1010.4
20260901034555 78 234 1.0 3.0 0.00 0.00 0.00 67 1010.1
20260901033056 77 51 2.0 4.0 0.00 0.00 0.00 70 1009.8
20260901031553 78 83 4.0 7.0 0.00 0.00 0.00 69 1009.4
20260901030053 78 146 1.0 2.0 0.00 0.00 0.00 67 1009.9
20260901024553 79 225 1.0 3.0 0.00 0.00 0.00 67 1010.3
20260901023053 80 231 2.0 2.0 0.00 0.00 0.00 64 1010.3
20260901021552 79 193 2.0 3.0 0.00 0.00 0.00 65 1009.9
20260901020051 80 167 2.0 4.0 0.00 0.00 0.00 64 1009.6
20260901014553 81 100 0.0 2.0 0.00 0.00 0.00 61 1009.1
20260901013107 81 103 1.0 2.0 0.00 0.00 0.00 61 1008.8
20260901011551 82 92 2.0 3.0 0.00 0.00 0.00 59 1008.5
20260901010052 83 68 1.0 3.0 0.00 0.00 0.00 58 1008.4
20260901004549 85 101 2.0 3.0 0.00 0.00 0.00 53 1008.3
20260901003049 87 88 2.0 6.0 0.00 0.00 0.00 51 1008.3
20260901001549 88 82 3.0 6.0 0.00 0.00 0.00 50 1008.5
20260901000048 89 84 5.0 7.0 0.00 0.00 0.00 47 1008.6
20260831234555 90 98 5.0 9.0 0.00 0.00 0.00 44 1008.6
20260831233046 90 72 5.0 8.0 0.00 0.00 0.00 44 1008.6
20260831231547 90 86 6.0 9.0 0.00 0.00 0.00 44 1008.6
20260831230046 90 96 5.0 10.0 0.00 0.00 0.00 46 1008.8
20260831224545 90 81 6.0 9.0 0.00 0.00 0.00 45 1008.7